Simultaneous Nadir Overpasses (SNOs) Predictions

Prediction of SNOs between METOP-B and TERRA Satellite Orbit:

Table of predicted SNOs for the next 14.0 days since TLE Epoch: 11/23/2013
Index Date (METOP-B) Time (METOP-B) Lat,Lon (METOP-B) SZA (METOP-B ) Date (TERRA) Time (TERRA) Lat,Lon (TERRA) SZA (TERRA ) Distance(km) Time Diff (sec)
1 11/24/2013 05:51:12 -81.29, -40.72 75.14 11/24/2013 05:51:18 -81.29, -40.86 75.15 2.46 6
2 11/24/2013 06:41:52 81.29, 126.83 104.90 11/24/2013 06:40:44 81.29, 126.90 104.88 1.32 68
3 11/27/2013 00:34:56 81.28,-141.97 105.33 11/27/2013 00:36:07 81.28,-142.13 105.35 2.65 71
4 11/27/2013 01:25:37 -81.28, 25.47 74.65 11/27/2013 01:25:34 -81.28, 25.45 74.66 0.33 3
5 11/29/2013 20:09:21 81.28, -75.54 105.79 11/29/2013 20:10:23 81.28, -75.67 105.81 2.18 62
6 11/29/2013 21:00:02 -81.28, 91.95 74.19 11/29/2013 20:59:50 -81.28, 91.93 74.20 0.47 12
7 12/02/2013 15:43:47 81.27, -9.59 106.14 12/02/2013 15:44:39 81.27, -9.43 106.18 2.64 52
8 12/02/2013 16:34:26 -81.29, 158.74 73.74 12/02/2013 16:34:05 -81.29, 158.55 73.77 3.14 21
9 12/05/2013 11:18:10 81.28, 57.06 106.51 12/05/2013 11:18:53 81.27, 56.96 106.52 1.85 43




NCC Satellite Simultaneous Nadir Overpasses (SNOs) Prediction Service
